カタログに戻る

FENGYUN 1C DEB

運用中PO
NORAD 30647·DEBRIS·🇨🇳 China

打ち上げ May 10, 1999 から Taiyuan Satellite Launch Center

Loading…

次のパス (今後24時間)

TLE

最新Source: Space-Track

元期: Sep 14, 2026, 09:21 UTC

1 30647U 99025APE 26257.39026030  .00007549  00000-0  14987-2 0  9996
2 30647  98.9986 217.5153 0030564  56.0515  97.3448 14.62204040 20106

AllMySatでFENGYUN 1C DEBをリアルタイム追跡

Download on the App Store